Location: Herm
(49.4830°N, 2.4500°W)
Time: 15:27:15
(UTC+01:00)

ISS - Visible Passes

Search period start: 20 May 2019 00:00
Search period end: 30 May 2019 00:00
Orbit: 407 x 410 km, 51.6° (Epoch: 20 May)

Date Brightness Start Highest point End Pass type
(mag) Time Alt. Az. Time Alt. Az. Time Alt. Az.
20 May -3.3 00:13:20 10° W 00:16:38 59° N 00:19:54 10° ENE visible
20 May -3.7 01:50:05 10° WNW 01:53:24 74° NNE 01:56:43 10° E visible
20 May -3.1 03:26:48 10° W 03:29:49 32° SSW 03:32:50 10° SSE visible
20 May -3.3 21:46:05 10° SW 21:49:11 39° SSE 21:52:18 10° E visible
20 May -3.5 23:22:22 10° W 23:25:40 68° NNW 23:28:58 10° ENE visible
21 May -3.4 00:59:10 10° WNW 01:02:27 62° N 01:04:30 21° E visible
21 May -2.1 02:35:48 10° WNW 02:37:06 21° W 02:37:06 21° W visible
21 May -3.8 22:31:25 10° WSW 22:34:43 85° NNW 22:38:03 10° ENE visible
22 May -3.2 00:08:12 10° WNW 00:11:29 57° N 00:14:14 14° E visible
22 May -2.7 01:44:51 10° WNW 01:46:55 35° W 01:46:55 35° W visible
22 May -3.9 21:40:31 10° WSW 21:43:49 71° SSE 21:47:07 10° ENE visible
22 May -3.2 23:17:13 10° W 23:20:30 57° N 23:23:45 10° ENE visible
23 May -3.9 00:53:55 10° WNW 00:57:15 84° NNE 00:57:16 84° NNE visible
23 May -3.3 22:26:13 10° W 22:29:29 63° N 22:32:47 10° ENE visible
24 May -3.5 00:02:59 10° WNW 00:06:17 67° N 00:07:45 30° E visible
24 May -1.5 01:39:38 10° W 01:40:27 16° W 01:40:27 16° W visible
24 May -3.6 21:35:12 10° W 21:38:30 75° NNW 21:41:49 10° ENE visible
24 May -3.3 23:12:00 10° WNW 23:15:17 59° N 23:18:19 12° E visible
25 May -3.0 00:48:38 10° WNW 00:51:01 41° W 00:51:01 41° W visible
25 May -3.1 22:20:59 10° W 22:24:15 56° N 22:27:31 10° E visible
25 May -3.9 23:57:39 10° WNW 00:00:58 85° SSW 00:01:37 55° ESE visible
26 May -3.7 23:06:40 10° WNW 23:09:59 75° NNE 23:12:14 19° E visible
27 May -2.0 00:43:24 10° W 00:44:57 22° W 00:44:57 22° W visible
27 May -3.4 22:15:40 10° WNW 22:18:58 62° N 22:22:14 10° E visible
27 May -3.6 23:52:19 10° WNW 23:55:31 49° SSW 23:55:35 49° SSW visible
28 May -3.9 23:01:17 10° WNW 23:04:35 72° SSW 23:06:16 26° ESE visible
29 May -1.3 00:38:30 10° W 00:38:58 12° WSW 00:38:58 12° WSW visible
29 May -3.8 22:10:15 10° WNW 22:13:34 84° NNE 22:16:53 10° ESE visible
29 May -2.5 23:47:05 10° W 23:49:39 26° SW 23:49:39 26° SW visible
